Notices

What's New in latest Release from April 7th, 2021:

- Updated Glossary, including Speed of Maximum Gust, and Total Hourly Precipitation

- Updated national and regional climate services offices contacts and prices information

- Addition of station inventory lists for 1981-2010, 1971-2000, and 1961-1990 Normals.

If you haven't already, please take our survey and provide feedback about our website: https://eccc.sondage-survey.ca/f/LanguageSelection.aspx?s=442ca660-fcf1-47c0-95a9-59707d6fd709

Hourly Data Report for April 22, 2018

MIRAMICHI RCS
NEW BRUNSWICK
Current Station Operator: ECCC - MSC

47°00'34.000" N
65°27'54.000" W
33.00 m
8100989
71744
ACQ

Download Data

Hourly Data (April 2018)
Hourly Data Report for April 22, 2018
TIME
LST
Temp Definition
°C
Dew Point Definition
°C
Rel Hum Definition
%
Precip. Amount Definition
mm

Wind Dir Definition
10's deg

Wind Spd Definition
km/h
Visibility Definition
km
Stn Press Definition
kPa
Hmdx Definition


Wind Chill Definition


Weather Definition


00:00 0.6 -7.0 57 0.0 26 8   101.53     LegendNANA
01:00 0.0 -6.8 60 0.0 26 9   101.53   -3 LegendNANA
02:00 0.1 -7.9 55 0.0 29 9   101.51     LegendNANA
03:00 -1.2 -6.4 68 0.0 29 9   101.53   -4 LegendNANA
04:00 0.8 -9.0 48 0.0 31 9   101.55     LegendNANA
05:00 -0.5 -8.5 55 0.0 30 9   101.58   -4 LegendNANA
06:00 0.2 -9.1 50 0.0 30 8   101.65     LegendNANA
07:00 2.1 -9.0 44 0.0 31 7   101.72     LegendNANA
08:00 4.2 -9.5 36 0.0 34 12   101.75     LegendNANA
09:00 5.5 -9.6 33 0.0 34 10   101.78     LegendNANA
10:00 6.4 -10.5 29 0.0 32 13   101.79     LegendNANA
11:00 7.5 -10.3 27 0.0 32 8   101.77     LegendNANA
12:00 7.9 -10.3 26 0.0 31 12   101.74     LegendNANA
13:00 8.9 -12.6 20 0.0 31 12   101.73     LegendNANA
14:00 9.6 -15.1 16 0.0 31 13   101.72     LegendNANA
15:00 10.2 -10.9 21 0.0 29 10   101.72     LegendNANA
16:00 10.4 -12.3 19 0.0 30 12   101.72     LegendNANA
17:00 10.4 -13.3 17 0.0 31 12   101.74     LegendNANA
18:00 10.5 -12.6 18 0.0 32 8   101.75     LegendNANA
19:00 9.0 -12.6 20 0.0 31 8   101.82     LegendNANA
20:00 6.6 -12.2 25 0.0 31 6   101.90     LegendNANA
21:00 5.1 -11.7 29 0.0 29 4   101.97     LegendNANA
22:00 3.9 -10.4 34 0.0 28 5   102.01     LegendNANA
23:00 1.3 -9.8 43 0.0 29 5   102.03     LegendNANA

Notes on Data Quality.

Legend

  • E = Estimated
  • M = Missing
  • NA = Not Available*
  • [empty] = Indicates an unobserved value
Date modified: